Weather History for Thedford, NE

Change the Weather History Date:

Monday, December 3, 2012

  Actual Average (KLBF) Record (KLBF)
Temperature  
Mean Temperature 43 °F 28 °F  
Max Temperature 55 °F 42 °F 71 °F (1959)
Min Temperature 29 °F 14 °F -8 °F (1978)
Degree Days  
Heating Degree Days 22 37  
Month to date heating degree days 111  
Since 1 July heating degree days 1662  
Cooling Degree Days 0 0  
Month to date cooling degree days 0  
Year to date cooling degree days 768  
Moisture  
Dew Point 24 °F    
Average Humidity 49    
Maximum Humidity 71    
Minimum Humidity 20    
Precipitation  
Precipitation 0.00 in 0.01 in 0.58 in (1955)
Month to date precipitation 0.04  
Year to date precipitation 19.86  
Snow  
Snow 0.00 in 0.10 in 5.50 in (1955)
Month to date snowfall 0.4  
Since 1 July snowfall 6.6  
Snow Depth -    
Sea Level Pressure  
Sea Level Pressure 29.87 in    
Wind  
Wind Speed 11 mph (WNW)    
Max Wind Speed 26 mph    
Max Gust Speed 38 mph    
Visibility 10 miles    
Events      
T = Trace of Precipitation, MM = Missing Value Source: NWS Daily Summary

Daily Weather History Graph

Daily Weather History Graph

Search for Another Location

Airport:

Trip Planner

Search our weather history database for the weather conditions in past years. The results will help you decide how hot, cold, wet, or windy it might be!

Date:

Astronomy

Dec. 03, 2012 Rise Set
Actual Time 7:53 AM CST 5:11 PM CST
Civil Twilight 7:21 AM CST 5:42 PM CST
Nautical Twilight 6:47 AM CST 6:17 PM CST
Astronomical Twilight 6:13 AM CST 6:51 PM CST
Moon 10:02 PM CST (12/3) 11:15 AM CST (12/3)
Length of Visible Light 10h 20m
Length of Day
9h 18m
Waning Gibbous, 78% of the Moon is Illuminated
Dec 3
Waning Gibbous
Dec 6
Last Quarter
Dec 13
New
Dec 19
First Quarter
Dec 28
Full

Hourly Weather History & Observations

Time (CST) Temp. Windchill Dew Point Humidity Pressure Visibility Wind Dir Wind Speed Gust Speed Precip Events Conditions
12:15 AM 49.8 °F - 32.0 °F 50% 29.59 in 10.0 mi South 12.7 mph - N/A   Clear
12:35 AM 48.6 °F - 32.0 °F 53% 29.59 in 10.0 mi South 9.2 mph - N/A   Clear
12:55 AM 47.1 °F - 32.0 °F 56% 29.57 in 10.0 mi SSW 8.1 mph - N/A   Clear
1:15 AM 47.1 °F - 32.0 °F 56% 29.58 in 10.0 mi SW 9.2 mph - N/A   Clear
1:35 AM 47.1 °F - 31.6 °F 55% 29.58 in 10.0 mi SW 5.8 mph - N/A   Clear
1:55 AM 44.6 °F 41.4 °F 31.5 °F 60% 29.59 in 10.0 mi SW 5.8 mph - N/A   Clear
2:15 AM 42.6 °F 40.9 °F 30.9 °F 63% 29.57 in 10.0 mi SW 3.5 mph - N/A   Clear
2:35 AM 42.1 °F - 30.9 °F 65% 29.57 in 10.0 mi Calm Calm - N/A   Clear
2:55 AM 39.9 °F 35.8 °F 30.6 °F 69% 29.58 in 10.0 mi WSW 5.8 mph - N/A   Clear
3:15 AM 38.8 °F 33.2 °F 30.0 °F 71% 29.60 in 10.0 mi West 8.1 mph - N/A   Clear
3:35 AM 39.6 °F 35.4 °F 30.2 °F 69% 29.60 in 10.0 mi West 5.8 mph - N/A   Clear
3:55 AM 39.0 °F 34.8 °F 30.2 °F 71% 29.60 in 10.0 mi West 5.8 mph - N/A   Clear
4:35 AM 42.6 °F 39.9 °F 29.8 °F 61% 29.60 in 10.0 mi West 4.6 mph - N/A   Clear
4:55 AM 41.0 °F 38.0 °F 29.8 °F 64% 29.62 in 10.0 mi West 4.6 mph - N/A   Clear
5:15 AM 41.2 °F 36.0 °F 30.0 °F 65% 29.62 in 10.0 mi West 8.1 mph - N/A   Clear
5:35 AM 40.1 °F 35.3 °F 29.8 °F 67% 29.63 in 10.0 mi West 6.9 mph - N/A   Clear
5:55 AM 41.4 °F 36.8 °F 29.7 °F 63% 29.64 in 10.0 mi WNW 6.9 mph - N/A   Clear
6:15 AM 40.6 °F 37.5 °F 29.8 °F 65% 29.66 in 10.0 mi WNW 4.6 mph - N/A   Clear
6:35 AM 43.7 °F 37.3 °F 31.8 °F 63% 29.69 in 10.0 mi NW 12.7 mph 17.3 mph N/A   Clear
6:55 AM 50.2 °F - 37.4 °F 62% 29.71 in 10.0 mi NNW 20.7 mph 29.9 mph N/A   Clear
7:15 AM 50.4 °F - 37.4 °F 61% 29.72 in 10.0 mi NNW 20.7 mph 28.8 mph N/A   Clear
7:35 AM 49.5 °F - 36.7 °F 61% 29.75 in 10.0 mi NNW 21.9 mph 31.1 mph N/A   Clear
7:55 AM 48.9 °F - 36.1 °F 61% 29.76 in 10.0 mi NNW 20.7 mph 34.5 mph N/A   Clear
8:15 AM 48.2 °F - 36.1 °F 63% 29.79 in 10.0 mi NNW 19.6 mph 31.1 mph N/A   Scattered Clouds
8:35 AM 47.1 °F - 36.0 °F 65% 29.81 in 10.0 mi NNW 20.7 mph 26.5 mph N/A   Scattered Clouds
8:55 AM 46.8 °F - 35.6 °F 65% 29.84 in 10.0 mi NNW 18.4 mph 24.2 mph N/A   Clear
9:15 AM 47.3 °F - 35.1 °F 62% 29.84 in 10.0 mi NNW 20.7 mph 27.6 mph N/A   Mostly Cloudy
9:35 AM 48.4 °F - 34.9 °F 60% 29.86 in 10.0 mi NNW 18.4 mph 28.8 mph N/A   Scattered Clouds
9:55 AM 48.4 °F - 34.0 °F 58% 29.87 in 10.0 mi NNW 23.0 mph 34.5 mph N/A   Clear
10:15 AM 48.6 °F - 33.3 °F 56% 29.88 in 10.0 mi NNW 18.4 mph 29.9 mph N/A   Clear
10:35 AM 50.7 °F - 28.9 °F 43% 29.90 in 10.0 mi NNW 21.9 mph 35.7 mph N/A   Clear
10:55 AM 51.3 °F - 25.7 °F 37% 29.90 in 10.0 mi NNW 26.5 mph 38.0 mph N/A   Clear
11:15 AM 52.0 °F - 23.5 °F 33% 29.91 in 10.0 mi NNW 25.3 mph 32.2 mph N/A   Clear
11:35 AM 52.0 °F - 21.6 °F 30% 29.92 in 10.0 mi NNW 24.2 mph 34.5 mph N/A   Clear
11:55 AM 53.1 °F - 21.0 °F 29% 29.93 in 10.0 mi NNW 20.7 mph 27.6 mph N/A   Clear
12:15 PM 53.4 °F - 20.5 °F 28% 29.93 in 10.0 mi NW 24.2 mph 29.9 mph N/A   Clear
12:35 PM 53.6 °F - 19.2 °F 26% 29.93 in 10.0 mi NNW 25.3 mph 32.2 mph N/A   Clear
1:15 PM 53.6 °F - 18.0 °F 25% 29.95 in 10.0 mi NNW 18.4 mph 26.5 mph N/A   Clear
1:35 PM 54.5 °F - 16.7 °F 23% 29.96 in 10.0 mi NNW 20.7 mph 28.8 mph N/A   Clear
1:55 PM 54.7 °F - 15.8 °F 22% 29.96 in 10.0 mi NNW 20.7 mph 24.2 mph N/A   Clear
2:15 PM 55.0 °F - 14.4 °F 20% 29.96 in 10.0 mi NW 19.6 mph 28.8 mph N/A   Clear
2:35 PM 54.5 °F - 14.9 °F 21% 29.96 in 10.0 mi NNW 18.4 mph 26.5 mph N/A   Clear
2:55 PM 54.1 °F - 14.0 °F 20% 29.98 in 10.0 mi NW 16.1 mph 26.5 mph N/A   Clear
3:15 PM 53.6 °F - 13.8 °F 21% 29.98 in 10.0 mi NNW 16.1 mph 25.3 mph N/A   Clear
3:35 PM 53.2 °F - 13.8 °F 21% 29.98 in 10.0 mi NW 12.7 mph 19.6 mph N/A   Clear
3:55 PM 52.9 °F - 14.0 °F 21% 29.99 in 10.0 mi NNW 16.1 mph 23.0 mph N/A   Clear
4:15 PM 52.0 °F - 14.4 °F 22% 30.01 in 10.0 mi NW 10.4 mph - N/A   Clear
4:35 PM 50.4 °F - 14.2 °F 24% 30.01 in 10.0 mi NW 9.2 mph - N/A   Clear
4:55 PM - - - N/A% 30.02 in - NW 5.8 mph - N/A   Unknown
5:15 PM 45.1 °F 43.7 °F 14.7 °F 29% 30.03 in 10.0 mi WNW 3.5 mph - N/A   Clear
5:35 PM 43.0 °F - 14.9 °F 32% 30.03 in 10.0 mi Calm Calm - N/A   Clear
5:55 PM 39.2 °F 35.9 °F 16.2 °F 39% 30.03 in 10.0 mi WSW 4.6 mph - N/A   Clear
6:15 PM 37.0 °F 33.3 °F 16.5 °F 43% 30.04 in 10.0 mi WSW 4.6 mph - N/A   Clear
6:35 PM 37.2 °F 32.6 °F 16.9 °F 44% 30.05 in 10.0 mi SW 5.8 mph - N/A   Clear
6:55 PM 36.5 °F 33.9 °F 17.1 °F 45% 30.05 in 10.0 mi SSW 3.5 mph - N/A   Clear
7:15 PM 36.9 °F - 16.7 °F 44% 30.07 in 10.0 mi Calm Calm - N/A   Clear
7:35 PM 35.8 °F 33.0 °F 17.6 °F 48% 30.07 in 10.0 mi SW 3.5 mph - N/A   Clear
7:55 PM 36.3 °F 31.6 °F 18.3 °F 48% 30.08 in 10.0 mi SW 5.8 mph - N/A   Clear
8:15 PM 36.5 °F - 18.7 °F 49% 30.08 in 10.0 mi Calm Calm - N/A   Clear
8:35 PM 34.5 °F - 19.0 °F 53% 30.08 in 10.0 mi Calm Calm - N/A   Clear
8:55 PM 32.2 °F 28.9 °F 19.0 °F 58% 30.09 in 10.0 mi West 3.5 mph - N/A   Clear
9:15 PM 32.5 °F - 18.9 °F 57% 30.10 in 10.0 mi Calm Calm - N/A   Clear
9:35 PM 32.7 °F 25.7 °F 19.0 °F 57% 30.10 in 10.0 mi WSW 8.1 mph - N/A   Clear
9:55 PM 32.0 °F - 19.4 °F 60% 30.11 in 10.0 mi Calm Calm - N/A   Clear
10:15 PM 32.9 °F 28.5 °F 19.4 °F 58% 30.11 in 10.0 mi WNW 4.6 mph - N/A   Clear
10:35 PM 31.1 °F 27.7 °F 19.2 °F 61% 30.11 in 10.0 mi WSW 3.5 mph - N/A   Clear
10:55 PM 31.8 °F 24.6 °F 19.6 °F 61% 30.11 in 10.0 mi SW 8.1 mph - N/A   Clear
11:15 PM 32.4 °F - 19.4 °F 59% 30.13 in 10.0 mi Calm Calm - N/A   Clear
11:35 PM 29.8 °F - 19.8 °F 66% 30.13 in 10.0 mi Calm Calm - N/A   Clear